Regional Weather Roundup
Issued by NWS

Home | Current Version | Previous Version | Text Only | Print | Product List | Glossary Off
Versions: 1 2 3 4 5 6 7 8 9 10 11 12 13 14 15 16 17 18 19 20 21 22 23 24 25 26 27 28 29 30 31 32 33 34 35 36 37 38 39 40 41 42 43 44 45 46 47 48 49 50

541
ASUS43 KDTX 210610
RWRMI
MICHIGAN HOURLY REGIONAL WEATHER ROUNDUP
NATIONAL WEATHER SERVICE DETROIT/PONTIAC MI
200 AM EDT SAT APR 21 2018

NOTE: "FAIR" INDICATES FEW OR NO CLOUDS BELOW 12,000 FEET WITH NO
SIGNIFICANT WEATHER AND/OR OBSTRUCTION TO VISIBILITY.

MIZ047>049-052>055-059>063-066>070-074>076-081>083-210700-
SOUTHEAST LOWER MICHIGAN

CITY           SKY/WX    TMP DP  RH WIND       PRES   REMARKS
ADRIAN         FAIR      35  27  72 CALM      30.46S
6HR MIN TEMP:  35; 6HR MAX TEMP:  53;

ALMA           FAIR      38  27  63 N5        30.46R WCI  35
6HR MIN TEMP:  35; 6HR MAX TEMP:  54;

ANN ARBOR      FAIR      30  26  85 CALM      30.46R
BAD AXE        FAIR      33  22  65 CALM      30.48S
6HR MIN TEMP:  32; 6HR MAX TEMP:  47;

CARO           FAIR      31  21  66 CALM      30.47S
DETROIT CITY   FAIR      38  24  57 CALM      30.47S
6HR MIN TEMP:  36; 6HR MAX TEMP:  47;

DETROIT        FAIR      40  28  62 CALM      30.47R
6HR MIN TEMP:  39; 6HR MAX TEMP:  51;

FLINT          FAIR      38  27  64 E5        30.46R WCI  34
6HR MIN TEMP:  35; 6HR MAX TEMP:  49;

GROSSE ILE     FAIR      35  29  78 NE3       30.46S
6HR MIN TEMP:  34; 6HR MAX TEMP:  44;

HILLSDALE      FAIR      39  23  52 SE6       30.44S WCI  35
HOWELL         FAIR      39  27  63 CALM      30.45S
6HR MIN TEMP:  38; 6HR MAX TEMP:  51;


CITY           SKY/WX    TMP DP  RH WIND       PRES   REMARKS
JACKSON        FAIR      38  24  57 CALM      30.45R
6HR MIN TEMP:  38; 6HR MAX TEMP:  54;

LAMBERTVILLE   FAIR      37  28  71 SE3       30.45S
6HR MIN TEMP:  36; 6HR MAX TEMP:  53;

LANSING        FAIR      40  24  53 S3        30.46R
6HR MIN TEMP:  38; 6HR MAX TEMP:  54;

LAPEER         FAIR      31  26  81 CALM      30.47S
6HR MIN TEMP:  31; 6HR MAX TEMP:  49;

MASON          FAIR      38  22  53 CALM      30.46S
6HR MIN TEMP:  38; 6HR MAX TEMP:  54;

MONROE         FAIR      32  30  92 CALM      30.45S
6HR MIN TEMP:  32; 6HR MAX TEMP:  47;

MT. CLEMENS    FAIR      32  31  96 N3          N/A
6HR MIN TEMP:  32; 6HR MAX TEMP:  44;

PONTIAC        FAIR      35  26  69 CALM      30.45R
6HR MIN TEMP:  35; 6HR MAX TEMP:  51;

PORT HOPE        N/A     30  24  78 CALM      30.45S
6HR MIN TEMP:  29; 6HR MAX TEMP:  41;

PORT HURON     FAIR      27  25  93 CALM      30.48S
TRI CITIES     FAIR      36  30  79 E8        30.47R WCI  30
6HR MIN TEMP:  36; 6HR MAX TEMP:  53;

MIDLAND        FAIR      30  27  90 CALM      30.46S
6HR MIN TEMP:  30; 6HR MAX TEMP:  48;

TROY           FAIR      39  21  47 CALM      30.49R
SAGINAW HB     FAIR      36  28  75 E3        30.47R
$$
MIZ043>046-050>051-056>058-064>065-071>073-077>080-210700-
SOUTHWEST LOWER MICHIGAN

CITY           SKY/WX    TMP DP  RH WIND       PRES   REMARKS
BATTLE CREEK   FAIR      39  24  55 CALM      30.45S
6HR MIN TEMP:  37; 6HR MAX TEMP:  57;

BENTON HARBOR  FAIR      30  21  69 CALM      30.46R
6HR MIN TEMP:  30; 6HR MAX TEMP:  47;

BIG RAPIDS     FAIR      31  21  68 CALM      30.46S
6HR MIN TEMP:  30; 6HR MAX TEMP:  51;

COLDWATER      FAIR      35  30  82 E3        30.45R
6HR MIN TEMP:  35; 6HR MAX TEMP:  55;

FREMONT        FAIR      34  10  35 CALM      30.45S
6HR MIN TEMP:  33; 6HR MAX TEMP:  49;

HOLLAND        FAIR      35  22  58 CALM      30.46R
6HR MIN TEMP:  34; 6HR MAX TEMP:  49;

GRAND RAPIDS   FAIR      41  20  43 CALM      30.45R
6HR MIN TEMP:  41; 6HR MAX TEMP:  52;

IONIA          FAIR      39  21  49 CALM      30.44R
6HR MIN TEMP:  39; 6HR MAX TEMP:  56;

KALAMAZOO      FAIR      38  21  50 CALM      30.45S
6HR MIN TEMP:  38; 6HR MAX TEMP:  54;

LUDINGTON      FAIR      27  23  87 CALM      30.45S
6HR MIN TEMP:  26; 6HR MAX TEMP:  43;

MARSHALL       FAIR      33  26  77 E3        30.45R
6HR MIN TEMP:  32; 6HR MAX TEMP:  53;

MOUNT PLEASANT FAIR      38  27  65 CALM      30.46S
6HR MIN TEMP:  38; 6HR MAX TEMP:  55;

MUSKEGON       FAIR      31  20  63 CALM      30.46S
6HR MIN TEMP:  30; 6HR MAX TEMP:  47;

SOUTH HAVEN    FAIR      32  22  66 CALM      30.46R
$$
MIZ016>042-210700-
NORTHERN LOWER MICHIGAN

CITY           SKY/WX    TMP DP  RH WIND       PRES   REMARKS
ALPENA         FAIR      26  22  84 CALM      30.47R
6HR MIN TEMP:  26; 6HR MAX TEMP:  39;

BEAVER ISLAND  FAIR      34  25  69 CALM      30.45S
6HR MIN TEMP:  30; 6HR MAX TEMP:  44;

BELLAIRE       FAIR      27  23  85 CALM      30.47S
6HR MIN TEMP:  27; 6HR MAX TEMP:  46;

CADILLAC       FAIR      26  20  76 CALM      30.43F
CHARLEVOIX     FAIR      29  23  77 CALM      30.49R
6HR MIN TEMP:  29; 6HR MAX TEMP:  45;

FRANKFORT      FAIR      30  21  69 CALM      30.46S
GAYLORD        FAIR      28  19  69 CALM      30.45R
6HR MIN TEMP:  25; 6HR MAX TEMP:  46;

GRAYLING       FAIR      24  20  86 CALM      30.45S
6HR MIN TEMP:  23; 6HR MAX TEMP:  46;

HARBOR SPRINGS FAIR      31  20  63 CALM      30.46R
HOUGHTON LAKE  FAIR      29  23  78 CALM      30.46S
6HR MIN TEMP:  27; 6HR MAX TEMP:  49;

MANISTEE       FAIR      26  21  81 CALM      30.46S
OSCODA         FAIR      24  19  79 SW6       30.46F WCI  17
6HR MIN TEMP:  24; 6HR MAX TEMP:  40;

PELLSTON       FAIR      28  20  71 CALM      30.46R
6HR MIN TEMP:  26; 6HR MAX TEMP:  47;

ROGERS CITY    FAIR      29  19  63 CALM      30.46R
TRAVERSE CITY  FAIR      31  22  69 CALM      30.45S
6HR MIN TEMP:  31; 6HR MAX TEMP:  47;

$$
MIZ007>008-015-210700-
EASTERN UPPER MICHIGAN

CITY           SKY/WX    TMP DP  RH WIND       PRES   REMARKS
KINROSS        FAIR      34  16  47 CALM      30.44S
6HR MIN TEMP:  34; 6HR MAX TEMP:  47;

MACKINAC ISLAN FAIR      34  20  56 SW7       30.44S WCI  28
6HR MIN TEMP:  33; 6HR MAX TEMP:  41;

NEWBERRY       FAIR      30  26  83 SW3       30.42S
6HR MIN TEMP:  29; 6HR MAX TEMP:  43;

S. S. MARIE    FAIR      35  19  52 CALM      30.43S
6HR MIN TEMP:  35; 6HR MAX TEMP:  48;

MUNISING         N/A     34  23  64 S8        30.42R WCI  27
6HR MIN TEMP:  31; 6HR MAX TEMP:  40;

$$
MIZ004>006-011>014-085-210700-
CENTRAL UPPER MICHIGAN

CITY           SKY/WX    TMP DP  RH WIND       PRES   REMARKS
MANISTIQUE     FAIR      29  28  94 S12       30.43S WCI  19
6HR MIN TEMP:  26; 6HR MAX TEMP:  37;

ESCANABA       FAIR      27  24  89 CALM      30.42F
6HR MIN TEMP:  27; 6HR MAX TEMP:  47;

MENOMINEE      FAIR      38  20  48 SE3       30.44R
6HR MIN TEMP:  37; 6HR MAX TEMP:  50;

SAWYER-GWINN   FAIR      34  19  54 CALM      30.40S
6HR MIN TEMP:  31; 6HR MAX TEMP:  49;

$$
MIZ001>003-009>011-084-210700-
WESTERN UPPER MICHIGAN

CITY           SKY/WX    TMP DP  RH WIND       PRES   REMARKS
IRON MOUNTAIN  FAIR      30  21  69 NW3       30.39R
6HR MIN TEMP:  30; 6HR MAX TEMP:  54;

HOUGHTON       FAIR      30  16  56 CALM      30.39S
6HR MIN TEMP:  29; 6HR MAX TEMP:  43;

COPPER HARBOR    N/A     36  17  46 SW8       30.40S WCI  30
6HR MIN TEMP:  36; 6HR MAX TEMP:  42;

IRONWOOD       FAIR      29  22  75 CALM      30.42S
6HR MIN TEMP:  28; 6HR MAX TEMP:  54;

$$

ABBREVIATIONS USED IN REMARKS
   TC - TEMPERATURE IN CELSIUS
  WCI - WIND CHILL INDEX
   HX - HEAT INDEX
  VSB - VISIBILITY





USA.gov is the U.S. government's official web portal to all federal, state and local government web resources and services.